Time,TemperatureF,DewpointF,PressureIn,WindDirection,WindDirectionDegrees,WindSpeedMPH,WindSpeedGustMPH,Humidity,HourlyPrecipIn,Conditions,Clouds,dailyrainin,SolarRadiationWatts/m^2,SoftwareType,DateUTC
2013-02-05 00:03:00,45.0,43.3,30.11,NW,326,0.0,0.0,94,0.00,,,0.00,0.0,meteohub,2013-02-05 08:03:00,
2013-02-05 00:08:00,45.5,43.9,30.11,NW,326,0.0,0.0,94,0.00,,,0.00,0.0,meteohub,2013-02-05 08:08:00,
2013-02-05 00:13:00,45.7,44.1,30.11,NW,326,0.0,3.0,94,0.00,,,0.00,0.0,meteohub,2013-02-05 08:13:00,
2013-02-05 00:19:00,45.7,44.2,30.11,NW,326,0.0,3.0,94,0.00,,,0.00,0.0,meteohub,2013-02-05 08:19:00,
2013-02-05 00:24:00,45.9,44.4,30.12,NW,326,0.0,3.0,94,0.00,,,0.00,0.0,meteohub,2013-02-05 08:24:00,
2013-02-05 00:29:00,45.9,44.4,30.11,NW,326,0.0,2.0,94,0.00,,,0.00,0.0,meteohub,2013-02-05 08:29:00,
2013-02-05 00:34:00,46.0,44.6,30.11,NW,326,0.0,2.0,94,0.00,,,0.00,0.0,meteohub,2013-02-05 08:34:00,
2013-02-05 00:39:00,46.2,44.8,30.11,NW,326,0.0,1.0,94,0.00,,,0.00,0.0,meteohub,2013-02-05 08:39:00,
2013-02-05 00:44:00,46.4,45.3,30.10,NW,326,0.0,1.0,95,0.00,,,0.00,0.0,meteohub,2013-02-05 08:44:00,
2013-02-05 00:49:00,46.4,45.3,30.11,NW,326,0.0,1.0,95,0.00,,,0.00,0.0,meteohub,2013-02-05 08:49:00,
2013-02-05 00:54:00,46.4,45.3,30.10,NW,326,0.0,1.0,95,0.00,,,0.00,0.0,meteohub,2013-02-05 08:54:00,
2013-02-05 00:59:00,46.6,45.5,30.10,NW,326,0.0,0.0,95,0.00,,,0.00,0.0,meteohub,2013-02-05 08:59:00,
2013-02-05 01:04:00,46.6,45.5,30.09,NE,46,0.0,1.0,95,0.00,,,0.00,0.0,meteohub,2013-02-05 09:04:00,
2013-02-05 01:09:00,46.8,45.7,30.09,NE,46,0.0,3.0,95,0.00,,,0.00,0.0,meteohub,2013-02-05 09:09:00,
2013-02-05 01:15:00,46.8,45.7,30.09,NE,46,0.0,3.0,95,0.00,,,0.00,0.0,meteohub,2013-02-05 09:15:00,
2013-02-05 01:20:00,46.8,45.7,30.10,NE,47,0.0,2.0,95,0.00,,,0.00,0.0,meteohub,2013-02-05 09:20:00,
2013-02-05 01:25:00,46.8,45.7,30.10,South,180,1.0,3.0,95,0.00,,,0.00,0.0,meteohub,2013-02-05 09:25:00,
2013-02-05 01:30:00,46.8,45.7,30.10,SSW,213,2.0,3.0,95,0.00,,,0.00,0.0,meteohub,2013-02-05 09:30:00,
2013-02-05 01:35:00,46.6,45.5,30.10,South,191,4.0,5.0,95,0.00,,,0.00,0.0,meteohub,2013-02-05 09:35:00,
2013-02-05 01:40:00,46.4,45.3,30.10,South,190,2.0,5.0,95,0.00,,,0.00,0.0,meteohub,2013-02-05 09:40:00,
2013-02-05 01:45:00,46.4,45.3,30.10,SSW,203,1.0,5.0,95,0.00,,,0.00,0.0,meteohub,2013-02-05 09:45:00,
2013-02-05 01:50:00,46.4,45.3,30.10,SSW,205,1.0,5.0,95,0.00,,,0.00,0.0,meteohub,2013-02-05 09:50:00,
2013-02-05 01:55:00,46.4,45.0,30.10,SSW,205,0.0,5.0,94,0.00,,,0.00,0.0,meteohub,2013-02-05 09:55:00,
2013-02-05 02:00:00,46.4,45.0,30.10,SSW,205,3.0,3.0,94,0.00,,,0.00,0.0,meteohub,2013-02-05 10:00:00,
2013-02-05 02:05:00,46.4,45.0,30.10,SW,228,0.0,4.0,94,0.00,,,0.00,0.0,meteohub,2013-02-05 10:05:00,
2013-02-05 02:11:00,46.4,45.0,30.10,WSW,247,0.0,4.0,94,0.00,,,0.00,0.0,meteohub,2013-02-05 10:11:00,
2013-02-05 02:16:00,46.4,45.0,30.10,WSW,247,0.0,4.0,94,0.00,,,0.00,0.0,meteohub,2013-02-05 10:16:00,
2013-02-05 02:21:00,46.4,45.0,30.10,WSW,247,0.0,4.0,94,0.00,,,0.00,0.0,meteohub,2013-02-05 10:21:00,
2013-02-05 02:26:00,46.4,45.0,30.10,WSW,247,0.0,1.0,94,0.00,,,0.00,0.0,meteohub,2013-02-05 10:26:00,
2013-02-05 02:31:00,46.4,45.0,30.10,WSW,247,0.0,1.0,94,0.00,,,0.00,0.0,meteohub,2013-02-05 10:31:00,
2013-02-05 02:36:00,46.4,45.0,30.10,WSW,247,0.0,0.0,94,0.00,,,0.00,0.0,meteohub,2013-02-05 10:36:00,
2013-02-05 02:41:00,46.4,45.0,30.10,WSW,247,0.0,0.0,94,0.00,,,0.00,0.0,meteohub,2013-02-05 10:41:00,
2013-02-05 02:46:00,46.4,45.0,30.10,WSW,247,0.0,0.0,94,0.00,,,0.00,0.0,meteohub,2013-02-05 10:46:00,
2013-02-05 02:51:00,46.4,45.0,30.09,WSW,248,0.0,3.0,94,0.00,,,0.00,0.0,meteohub,2013-02-05 10:51:00,
2013-02-05 02:56:00,46.4,45.0,30.09,WSW,248,0.0,3.0,94,0.00,,,0.00,0.0,meteohub,2013-02-05 10:56:00,
2013-02-05 03:02:00,46.4,45.0,30.09,WSW,248,0.0,3.0,94,0.00,,,0.00,0.0,meteohub,2013-02-05 11:02:00,
2013-02-05 03:07:00,46.4,45.0,30.09,West,260,2.0,2.0,94,0.00,,,0.00,0.0,meteohub,2013-02-05 11:07:00,
2013-02-05 03:12:00,46.4,45.0,30.09,SW,219,1.0,4.0,94,0.00,,,0.00,0.0,meteohub,2013-02-05 11:12:00,
2013-02-05 03:17:00,46.4,45.0,30.10,SW,219,0.0,4.0,94,0.00,,,0.00,0.0,meteohub,2013-02-05 11:17:00,
2013-02-05 03:22:00,46.4,44.6,30.10,SW,218,1.0,4.0,93,0.00,,,0.00,0.0,meteohub,2013-02-05 11:22:00,
2013-02-05 03:27:00,46.2,44.4,30.09,SW,219,0.0,3.0,93,0.00,,,0.00,0.0,meteohub,2013-02-05 11:27:00,
2013-02-05 03:32:00,46.2,44.4,30.10,SW,219,0.0,2.0,93,0.00,,,0.00,0.0,meteohub,2013-02-05 11:32:00,
2013-02-05 03:37:00,46.4,44.6,30.09,SW,219,0.0,2.0,93,0.00,,,0.00,0.0,meteohub,2013-02-05 11:37:00,
2013-02-05 03:42:00,46.4,44.6,30.09,SW,219,0.0,0.0,93,0.00,,,0.00,0.0,meteohub,2013-02-05 11:42:00,
2013-02-05 03:47:00,46.2,44.4,30.09,SW,225,3.0,4.0,93,0.00,,,0.00,0.0,meteohub,2013-02-05 11:47:00,
2013-02-05 03:52:00,46.4,44.6,30.09,SW,225,0.0,6.0,93,0.00,,,0.00,0.0,meteohub,2013-02-05 11:52:00,
2013-02-05 03:57:00,46.4,44.6,30.09,SW,225,0.0,6.0,93,0.00,,,0.00,0.0,meteohub,2013-02-05 11:57:00,
2013-02-05 04:02:00,46.4,44.6,30.09,SW,225,0.0,4.0,93,0.00,,,0.00,0.0,meteohub,2013-02-05 12:02:00,
2013-02-05 04:07:00,46.4,44.4,30.09,SSW,195,1.0,3.0,92,0.00,,,0.00,0.0,meteohub,2013-02-05 12:07:00,
2013-02-05 04:12:00,46.4,44.4,30.09,SSW,198,0.0,5.0,92,0.00,,,0.00,0.0,meteohub,2013-02-05 12:12:00,
2013-02-05 04:17:00,46.4,44.4,30.09,SSW,207,2.0,5.0,92,0.00,,,0.00,0.0,meteohub,2013-02-05 12:17:00,
2013-02-05 04:22:00,46.4,44.4,30.09,SSW,210,2.0,6.0,92,0.00,,,0.00,0.0,meteohub,2013-02-05 12:22:00,
2013-02-05 04:27:00,46.4,44.1,30.09,SW,227,2.0,6.0,91,0.00,,,0.00,0.0,meteohub,2013-02-05 12:27:00,
2013-02-05 04:32:00,46.6,44.2,30.09,SSW,206,3.0,6.0,91,0.00,,,0.00,0.0,meteohub,2013-02-05 12:32:00,
2013-02-05 04:37:00,46.6,44.2,30.09,SW,219,2.0,6.0,91,0.00,,,0.00,0.0,meteohub,2013-02-05 12:37:00,
2013-02-05 04:42:00,46.6,44.1,30.09,SSW,200,1.0,6.0,90,0.00,,,0.00,0.0,meteohub,2013-02-05 12:42:00,
2013-02-05 04:47:00,46.6,44.1,30.09,SSW,208,1.0,4.0,90,0.00,,,0.00,0.0,meteohub,2013-02-05 12:47:00,
2013-02-05 04:52:00,46.8,44.2,30.09,SSW,207,1.0,6.0,90,0.00,,,0.00,0.0,meteohub,2013-02-05 12:52:00,
2013-02-05 04:57:00,46.8,43.9,30.09,WSW,241,2.0,6.0,89,0.00,,,0.00,0.0,meteohub,2013-02-05 12:57:00,
2013-02-05 05:02:00,46.8,43.9,30.09,SW,233,0.0,8.0,89,0.00,,,0.00,0.0,meteohub,2013-02-05 13:02:00,
2013-02-05 05:07:00,46.8,43.9,30.09,SW,231,8.0,8.0,89,0.00,,,0.00,0.0,meteohub,2013-02-05 13:07:00,
2013-02-05 05:12:00,46.8,43.5,30.09,SW,221,3.0,9.0,88,0.00,,,0.00,0.0,meteohub,2013-02-05 13:12:00,
2013-02-05 05:17:00,46.8,43.5,30.09,SSW,199,3.0,9.0,88,0.00,,,0.00,0.0,meteohub,2013-02-05 13:17:00,
2013-02-05 05:22:00,46.8,43.5,30.09,SW,215,1.0,9.0,88,0.00,,,0.00,0.0,meteohub,2013-02-05 13:22:00,
2013-02-05 05:27:00,46.8,43.5,30.08,West,272,1.0,8.0,88,0.00,,,0.00,0.0,meteohub,2013-02-05 13:27:00,
2013-02-05 05:32:00,46.6,43.2,30.08,SW,216,1.0,8.0,87,0.00,,,0.00,0.0,meteohub,2013-02-05 13:32:00,
2013-02-05 05:37:00,46.6,43.2,30.08,SW,235,2.0,7.0,87,0.00,,,0.00,0.0,meteohub,2013-02-05 13:37:00,
2013-02-05 05:42:00,46.6,43.2,30.08,SW,227,3.0,7.0,87,0.00,,,0.00,0.0,meteohub,2013-02-05 13:42:00,
2013-02-05 05:47:00,46.6,43.2,30.08,SW,233,1.0,4.0,87,0.00,,,0.00,0.0,meteohub,2013-02-05 13:47:00,
2013-02-05 05:52:00,46.4,43.0,30.08,WSW,252,1.0,4.0,87,0.00,,,0.00,0.0,meteohub,2013-02-05 13:52:00,
2013-02-05 05:57:00,46.4,43.0,30.08,WSW,252,3.0,4.0,87,0.00,,,0.00,0.0,meteohub,2013-02-05 13:57:00,
2013-02-05 06:02:00,46.4,43.0,30.08,SW,236,1.0,4.0,87,0.00,,,0.00,0.0,meteohub,2013-02-05 14:02:00,
2013-02-05 06:07:00,46.4,43.0,30.08,SW,219,0.0,4.0,87,0.00,,,0.00,0.0,meteohub,2013-02-05 14:07:00,
2013-02-05 06:12:00,46.4,43.0,30.08,SW,219,1.0,4.0,87,0.00,,,0.00,0.0,meteohub,2013-02-05 14:12:00,
2013-02-05 06:17:00,46.4,43.0,30.08,SW,219,1.0,3.0,87,0.00,,,0.00,0.0,meteohub,2013-02-05 14:17:00,
2013-02-05 06:22:00,46.4,43.0,30.08,SW,221,0.0,6.0,87,0.00,,,0.00,0.0,meteohub,2013-02-05 14:22:00,
2013-02-05 06:27:00,46.6,43.2,30.08,SW,220,0.0,6.0,87,0.00,,,0.00,0.0,meteohub,2013-02-05 14:27:00,
2013-02-05 06:32:00,46.6,43.2,30.08,SW,223,4.0,6.0,87,0.00,,,0.00,0.0,meteohub,2013-02-05 14:32:00,
2013-02-05 06:37:00,46.6,43.2,30.08,WSW,238,2.0,5.0,87,0.00,,,0.00,0.0,meteohub,2013-02-05 14:37:00,
2013-02-05 06:42:00,46.6,43.2,30.08,SW,236,0.0,5.0,87,0.00,,,0.00,0.0,meteohub,2013-02-05 14:42:00,
2013-02-05 06:47:00,46.6,43.2,30.09,SW,223,4.0,5.0,87,0.00,,,0.00,0.0,meteohub,2013-02-05 14:47:00,
2013-02-05 06:52:00,46.8,43.3,30.09,SW,227,0.0,4.0,87,0.00,,,0.00,0.0,meteohub,2013-02-05 14:52:00,
2013-02-05 06:57:00,46.8,43.3,30.09,SW,227,0.0,4.0,87,0.00,,,0.00,0.0,meteohub,2013-02-05 14:57:00,
2013-02-05 07:02:00,46.8,43.3,30.09,SW,227,0.0,4.0,87,0.00,,,0.00,0.0,meteohub,2013-02-05 15:02:00,
2013-02-05 07:07:00,46.8,43.3,30.09,West,266,0.0,1.0,87,0.00,,,0.00,0.0,meteohub,2013-02-05 15:07:00,
2013-02-05 07:12:00,46.8,43.3,30.09,SW,215,2.0,8.0,87,0.00,,,0.00,0.0,meteohub,2013-02-05 15:12:00,
2013-02-05 07:17:00,46.8,43.0,30.09,WSW,240,1.0,8.0,86,0.00,,,0.00,5.0,meteohub,2013-02-05 15:17:00,
2013-02-05 07:22:00,46.8,43.0,30.09,WSW,240,0.0,8.0,86,0.00,,,0.00,7.0,meteohub,2013-02-05 15:22:00,
2013-02-05 07:27:00,46.8,43.0,30.09,SW,225,3.0,6.0,86,0.00,,,0.00,12.0,meteohub,2013-02-05 15:27:00,
2013-02-05 07:32:00,46.8,42.6,30.10,SW,214,2.0,3.0,85,0.00,,,0.00,18.0,meteohub,2013-02-05 15:32:00,
2013-02-05 07:37:00,46.8,42.6,30.09,West,273,0.0,7.0,85,0.00,,,0.00,26.0,meteohub,2013-02-05 15:37:00,
2013-02-05 07:42:00,46.8,42.4,30.09,WNW,288,4.0,8.0,84,0.00,,,0.00,26.0,meteohub,2013-02-05 15:42:00,
2013-02-05 07:47:00,46.9,42.6,30.09,West,267,3.0,9.0,84,0.00,,,0.00,40.0,meteohub,2013-02-05 15:47:00,
2013-02-05 07:52:00,46.9,42.6,30.10,SW,231,3.0,9.0,84,0.00,,,0.00,40.0,meteohub,2013-02-05 15:52:00,
2013-02-05 07:57:00,47.1,42.8,30.10,SW,215,2.0,9.0,84,0.00,,,0.00,46.0,meteohub,2013-02-05 15:57:00,
2013-02-05 08:02:00,47.1,42.8,30.10,WNW,289,3.0,6.0,84,0.00,,,0.00,40.0,meteohub,2013-02-05 16:02:00,
2013-02-05 08:07:00,47.3,43.0,30.10,SW,235,4.0,7.0,84,0.00,,,0.00,42.0,meteohub,2013-02-05 16:07:00,
2013-02-05 08:12:00,47.3,42.6,30.10,SSW,207,5.0,8.0,83,0.00,,,0.00,42.0,meteohub,2013-02-05 16:12:00,
2013-02-05 08:17:00,47.3,42.6,30.11,West,261,3.0,8.0,83,0.00,,,0.00,42.0,meteohub,2013-02-05 16:17:00,
2013-02-05 08:22:00,47.5,42.8,30.11,SW,217,0.0,8.0,83,0.00,,,0.00,42.0,meteohub,2013-02-05 16:22:00,
2013-02-05 08:27:00,47.7,43.0,30.12,SW,217,2.0,6.0,83,0.00,,,0.00,49.0,meteohub,2013-02-05 16:27:00,
2013-02-05 08:32:00,47.7,43.3,30.11,NW,313,3.0,6.0,84,0.00,,,0.00,54.0,meteohub,2013-02-05 16:32:00,
2013-02-05 08:37:00,47.8,43.5,30.11,SW,217,2.0,6.0,84,0.00,,,0.00,46.0,meteohub,2013-02-05 16:37:00,
2013-02-05 08:42:00,47.8,43.2,30.11,SSW,194,4.0,9.0,83,0.00,,,0.00,105.0,meteohub,2013-02-05 16:42:00,
2013-02-05 08:47:00,47.8,42.4,30.11,SW,224,4.0,10.0,81,0.00,,,0.00,111.0,meteohub,2013-02-05 16:47:00,
2013-02-05 08:52:00,48.0,42.6,30.11,WSW,245,2.0,10.0,81,0.00,,,0.00,118.0,meteohub,2013-02-05 16:52:00,
2013-02-05 08:57:00,48.0,42.6,30.11,SW,226,3.0,7.0,81,0.00,,,0.00,98.0,meteohub,2013-02-05 16:57:00,
2013-02-05 09:02:00,48.0,42.6,30.12,SW,229,4.0,7.0,81,0.00,,,0.00,104.0,meteohub,2013-02-05 17:02:00,
2013-02-05 09:07:00,48.2,42.8,30.11,WSW,240,3.0,6.0,81,0.00,,,0.00,105.0,meteohub,2013-02-05 17:07:00,
2013-02-05 09:12:00,48.4,43.0,30.11,SSW,209,7.0,9.0,81,0.00,,,0.00,111.0,meteohub,2013-02-05 17:12:00,
2013-02-05 09:17:00,48.6,43.2,30.11,SW,221,4.0,9.0,81,0.00,,,0.00,139.0,meteohub,2013-02-05 17:17:00,
2013-02-05 09:22:00,48.7,43.3,30.11,SW,229,5.0,9.0,81,0.00,,,0.00,111.0,meteohub,2013-02-05 17:22:00,
2013-02-05 09:27:00,48.7,43.0,30.12,West,259,3.0,10.0,80,0.00,,,0.00,125.0,meteohub,2013-02-05 17:27:00,
2013-02-05 09:32:00,48.9,43.2,30.11,SSW,213,4.0,10.0,80,0.00,,,0.00,464.0,meteohub,2013-02-05 17:32:00,
2013-02-05 09:37:00,49.1,43.5,30.11,South,170,3.0,10.0,80,0.00,,,0.00,257.0,meteohub,2013-02-05 17:37:00,
2013-02-05 09:42:00,49.8,43.9,30.11,South,182,0.0,8.0,79,0.00,,,0.00,227.0,meteohub,2013-02-05 17:42:00,
2013-02-05 09:47:00,50.4,43.9,30.11,West,266,2.0,7.0,77,0.00,,,0.00,519.0,meteohub,2013-02-05 17:47:00,
2013-02-05 09:53:00,50.7,44.2,30.11,SW,232,3.0,8.0,77,0.00,,,0.00,244.0,meteohub,2013-02-05 17:53:00,
2013-02-05 09:58:00,51.1,44.2,30.11,SW,232,1.0,8.0,76,0.00,,,0.00,183.0,meteohub,2013-02-05 17:58:00,
2013-02-05 10:03:00,51.3,44.6,30.11,South,190,8.0,8.0,77,0.00,,,0.00,501.0,meteohub,2013-02-05 18:03:00,
2013-02-05 10:08:00,51.6,44.8,30.10,SSW,211,4.0,13.0,76,0.00,,,0.00,387.0,meteohub,2013-02-05 18:08:00,
2013-02-05 10:13:00,52.2,44.8,30.11,West,275,4.0,13.0,75,0.00,,,0.00,345.0,meteohub,2013-02-05 18:13:00,
2013-02-05 10:18:00,52.3,45.0,30.11,South,176,5.0,13.0,75,0.00,,,0.00,555.0,meteohub,2013-02-05 18:18:00,
2013-02-05 10:23:00,52.7,45.1,30.11,SW,225,5.0,9.0,74,0.00,,,0.00,592.0,meteohub,2013-02-05 18:23:00,
2013-02-05 10:28:00,53.2,45.9,30.11,South,173,0.0,9.0,75,0.00,,,0.00,443.0,meteohub,2013-02-05 18:28:00,
2013-02-05 10:33:00,53.8,45.7,30.12,WNW,290,5.0,9.0,73,0.00,,,0.00,253.0,meteohub,2013-02-05 18:33:00,
2013-02-05 10:38:00,53.8,45.5,30.11,West,279,0.0,9.0,72,0.00,,,0.00,359.0,meteohub,2013-02-05 18:38:00,
2013-02-05 10:43:00,53.8,45.1,30.11,WSW,239,2.0,7.0,71,0.00,,,0.00,272.0,meteohub,2013-02-05 18:43:00,
2013-02-05 10:48:00,53.4,44.8,30.11,SSW,211,1.0,10.0,71,0.00,,,0.00,278.0,meteohub,2013-02-05 18:48:00,
2013-02-05 10:53:00,53.4,44.8,30.11,SW,222,3.0,10.0,71,0.00,,,0.00,267.0,meteohub,2013-02-05 18:53:00,
2013-02-05 10:58:00,53.2,44.6,30.11,WNW,294,5.0,10.0,71,0.00,,,0.00,271.0,meteohub,2013-02-05 18:58:00,
2013-02-05 11:03:00,53.2,45.0,30.11,WSW,251,5.0,10.0,72,0.00,,,0.00,425.0,meteohub,2013-02-05 19:03:00,
2013-02-05 11:08:00,53.2,45.0,30.11,NW,306,4.0,10.0,72,0.00,,,0.00,392.0,meteohub,2013-02-05 19:08:00,
2013-02-05 11:13:00,53.4,45.1,30.11,SW,233,4.0,8.0,72,0.00,,,0.00,441.0,meteohub,2013-02-05 19:13:00,
2013-02-05 11:18:00,53.6,45.0,30.11,SW,227,4.0,9.0,71,0.00,,,0.00,325.0,meteohub,2013-02-05 19:18:00,
2013-02-05 11:23:00,53.6,45.0,30.11,WSW,254,3.0,9.0,71,0.00,,,0.00,311.0,meteohub,2013-02-05 19:23:00,
2013-02-05 11:28:00,53.4,45.1,30.11,SW,223,5.0,12.0,72,0.00,,,0.00,313.0,meteohub,2013-02-05 19:28:00,
2013-02-05 11:33:00,53.2,44.6,30.11,WNW,285,6.0,12.0,71,0.00,,,0.00,336.0,meteohub,2013-02-05 19:33:00,
2013-02-05 11:38:00,53.2,45.0,30.10,WSW,238,1.0,10.0,72,0.00,,,0.00,346.0,meteohub,2013-02-05 19:38:00,
2013-02-05 11:43:00,53.2,45.0,30.10,West,271,9.0,10.0,72,0.00,,,0.00,336.0,meteohub,2013-02-05 19:43:00,
2013-02-05 11:49:00,53.2,45.0,30.10,WNW,293,2.0,11.0,72,0.00,,,0.00,334.0,meteohub,2013-02-05 19:49:00,
2013-02-05 11:54:00,53.2,45.3,30.10,WSW,248,7.0,11.0,73,0.00,,,0.00,383.0,meteohub,2013-02-05 19:54:00,
2013-02-05 11:59:00,53.4,45.1,30.10,SW,234,4.0,11.0,72,0.00,,,0.00,316.0,meteohub,2013-02-05 19:59:00,
2013-02-05 12:04:00,53.8,45.5,30.10,West,273,4.0,11.0,72,0.00,,,0.00,272.0,meteohub,2013-02-05 20:04:00,
2013-02-05 12:09:00,53.6,45.0,30.10,WNW,294,4.0,11.0,71,0.00,,,0.00,241.0,meteohub,2013-02-05 20:09:00,
2013-02-05 12:14:00,53.6,45.3,30.10,SSW,211,3.0,11.0,72,0.00,,,0.00,211.0,meteohub,2013-02-05 20:14:00,
2013-02-05 12:19:00,53.8,45.7,30.09,SW,217,5.0,11.0,73,0.00,,,0.00,262.0,meteohub,2013-02-05 20:19:00,
2013-02-05 12:24:00,53.8,45.7,30.09,South,187,1.0,11.0,73,0.00,,,0.00,267.0,meteohub,2013-02-05 20:24:00,
2013-02-05 12:29:00,53.8,45.7,30.09,SSW,213,2.0,8.0,73,0.00,,,0.00,338.0,meteohub,2013-02-05 20:29:00,
2013-02-05 12:34:00,53.8,46.0,30.09,SSW,212,3.0,8.0,74,0.00,,,0.00,304.0,meteohub,2013-02-05 20:34:00,
2013-02-05 12:39:00,54.0,46.2,30.09,SW,222,2.0,9.0,74,0.00,,,0.00,292.0,meteohub,2013-02-05 20:39:00,
2013-02-05 12:44:00,54.0,45.9,30.09,SSW,192,7.0,9.0,73,0.00,,,0.00,318.0,meteohub,2013-02-05 20:44:00,
2013-02-05 12:50:00,53.8,45.7,30.09,SW,219,4.0,10.0,73,0.00,,,0.00,306.0,meteohub,2013-02-05 20:50:00,
2013-02-05 12:55:00,54.0,45.9,30.09,SW,229,5.0,11.0,73,0.00,,,0.00,308.0,meteohub,2013-02-05 20:55:00,
2013-02-05 13:00:00,54.0,45.9,30.09,WSW,239,4.0,11.0,73,0.00,,,0.00,285.0,meteohub,2013-02-05 21:00:00,
2013-02-05 13:05:00,54.0,45.9,30.08,West,261,8.0,11.0,73,0.00,,,0.00,278.0,meteohub,2013-02-05 21:05:00,
2013-02-05 13:10:00,53.8,46.0,30.09,West,261,4.0,11.0,74,0.00,,,0.00,251.0,meteohub,2013-02-05 21:10:00,
2013-02-05 13:15:00,53.8,45.7,30.08,SW,223,1.0,11.0,73,0.00,,,0.00,281.0,meteohub,2013-02-05 21:15:00,
2013-02-05 13:20:00,53.8,46.0,30.08,SSW,209,1.0,9.0,74,0.00,,,0.00,332.0,meteohub,2013-02-05 21:20:00,
2013-02-05 13:25:00,54.0,46.2,30.08,SSW,213,5.0,9.0,74,0.00,,,0.00,410.0,meteohub,2013-02-05 21:25:00,
2013-02-05 13:30:00,54.1,46.4,30.08,WSW,254,5.0,7.0,74,0.00,,,0.00,239.0,meteohub,2013-02-05 21:30:00,
2013-02-05 13:35:00,54.0,45.9,30.08,SW,223,3.0,10.0,73,0.00,,,0.00,271.0,meteohub,2013-02-05 21:35:00,
2013-02-05 13:40:00,54.0,46.2,30.08,SW,226,3.0,10.0,74,0.00,,,0.00,531.0,meteohub,2013-02-05 21:40:00,
2013-02-05 13:45:00,54.1,46.4,30.07,SSW,197,4.0,11.0,74,0.00,,,0.00,243.0,meteohub,2013-02-05 21:45:00,
2013-02-05 13:50:00,54.1,46.4,30.07,South,169,5.0,11.0,74,0.00,,,0.00,591.0,meteohub,2013-02-05 21:50:00,
2013-02-05 13:55:00,54.5,46.8,30.07,SW,217,6.0,11.0,74,0.00,,,0.00,582.0,meteohub,2013-02-05 21:55:00,
2013-02-05 14:00:00,54.9,46.8,30.07,West,273,9.0,11.0,73,0.00,,,0.00,635.0,meteohub,2013-02-05 22:00:00,
2013-02-05 14:05:00,55.0,46.6,30.07,SW,224,1.0,11.0,72,0.00,,,0.00,204.0,meteohub,2013-02-05 22:05:00,
2013-02-05 14:10:00,55.2,46.4,30.07,SW,234,0.0,11.0,71,0.00,,,0.00,496.0,meteohub,2013-02-05 22:10:00,
2013-02-05 14:15:00,54.5,46.0,30.05,WSW,243,4.0,13.0,72,0.00,,,0.00,378,weatherlink.com 1.10,2013-02-05 22:15:00,
2013-02-05 14:20:00,55.2,46.8,30.07,WSW,257,2.0,13.0,72,0.00,,,0.00,218.0,meteohub,2013-02-05 22:20:00,
2013-02-05 14:25:00,55.0,46.9,30.07,West,263,3.0,8.0,73,0.00,,,0.00,172.0,meteohub,2013-02-05 22:25:00,
2013-02-05 14:30:00,54.9,47.1,30.07,SW,224,1.0,11.0,74,0.00,,,0.00,381.0,meteohub,2013-02-05 22:30:00,
2013-02-05 14:35:00,54.9,47.1,30.06,WSW,253,5.0,11.0,74,0.00,,,0.00,246.0,meteohub,2013-02-05 22:35:00,
2013-02-05 14:40:00,55.0,47.3,30.07,West,265,4.0,9.0,74,0.00,,,0.00,243.0,meteohub,2013-02-05 22:40:00,
2013-02-05 14:46:00,55.0,47.3,30.07,SW,225,8.0,10.0,74,0.00,,,0.00,294.0,meteohub,2013-02-05 22:46:00,
2013-02-05 14:51:00,55.0,47.7,30.07,SSW,213,7.0,12.0,75,0.00,,,0.00,364.0,meteohub,2013-02-05 22:51:00,
2013-02-05 14:56:00,55.2,47.5,30.07,SSW,212,5.0,12.0,74,0.00,,,0.00,262.0,meteohub,2013-02-05 22:56:00,
2013-02-05 15:01:00,55.4,47.7,30.07,SW,218,6.0,10.0,74,0.00,,,0.00,258.0,meteohub,2013-02-05 23:01:00,
2013-02-05 15:06:00,55.4,47.3,30.07,WSW,243,4.0,10.0,73,0.00,,,0.00,183.0,meteohub,2013-02-05 23:06:00,
2013-02-05 15:11:00,55.4,47.7,30.07,SSW,212,4.0,10.0,74,0.00,,,0.00,294.0,meteohub,2013-02-05 23:11:00,
2013-02-05 15:16:00,55.4,47.7,30.08,SW,225,5.0,10.0,74,0.00,,,0.00,223.0,meteohub,2013-02-05 23:16:00,
2013-02-05 15:21:00,55.4,47.7,30.08,SW,221,1.0,9.0,74,0.00,,,0.00,155.0,meteohub,2013-02-05 23:21:00,
2013-02-05 15:26:00,55.4,47.7,30.08,SSW,212,5.0,9.0,74,0.00,,,0.00,274.0,meteohub,2013-02-05 23:26:00,
2013-02-05 15:31:00,55.6,48.2,30.08,SW,232,2.0,9.0,75,0.00,,,0.00,255.0,meteohub,2013-02-05 23:31:00,
2013-02-05 15:36:00,55.8,48.4,30.08,SSW,192,2.0,10.0,75,0.00,,,0.00,445.0,meteohub,2013-02-05 23:36:00,
2013-02-05 15:41:00,55.9,48.2,30.08,SW,217,6.0,10.0,74,0.00,,,0.00,399.0,meteohub,2013-02-05 23:41:00,
2013-02-05 15:46:00,55.9,48.2,30.08,WNW,290,3.0,12.0,74,0.00,,,0.00,229.0,meteohub,2013-02-05 23:46:00,
2013-02-05 15:51:00,55.9,48.4,30.08,West,271,5.0,12.0,74,0.00,,,0.00,339.0,meteohub,2013-02-05 23:51:00,
2013-02-05 15:56:00,56.1,48.6,30.09,SW,234,4.0,12.0,74,0.00,,,0.00,339.0,meteohub,2013-02-05 23:56:00,
2013-02-05 16:01:00,56.1,48.6,30.09,WSW,254,4.0,10.0,74,0.00,,,0.00,329.0,meteohub,2013-02-06 00:01:00,
2013-02-05 16:07:00,55.9,48.4,30.09,SSW,213,3.0,11.0,74,0.00,,,0.00,148.0,meteohub,2013-02-06 00:07:00,
2013-02-05 16:12:00,55.9,48.2,30.08,SSE,167,2.0,11.0,74,0.00,,,0.00,221.0,meteohub,2013-02-06 00:12:00,
2013-02-05 16:17:00,55.8,48.0,30.08,SSW,201,4.0,9.0,74,0.00,,,0.00,204.0,meteohub,2013-02-06 00:17:00,
2013-02-05 16:22:00,55.4,48.0,30.09,SW,224,6.0,10.0,75,0.00,,,0.00,74.0,meteohub,2013-02-06 00:22:00,
2013-02-05 16:27:00,55.2,48.2,30.08,South,191,2.0,10.0,76,0.00,,,0.00,72.0,meteohub,2013-02-06 00:27:00,
2013-02-05 16:32:00,55.0,48.0,30.08,SW,225,5.0,8.0,76,0.00,,,0.00,54.0,meteohub,2013-02-06 00:32:00,
2013-02-05 16:37:00,54.7,48.0,30.09,South,190,2.0,9.0,77,0.00,,,0.00,56.0,meteohub,2013-02-06 00:37:00,
2013-02-05 16:42:00,54.5,47.8,30.09,SW,231,3.0,9.0,77,0.00,,,0.00,35.0,meteohub,2013-02-06 00:42:00,
2013-02-05 16:47:00,54.1,47.8,30.09,SW,221,2.0,9.0,78,0.00,,,0.00,28.0,meteohub,2013-02-06 00:47:00,
2013-02-05 16:52:00,54.0,47.7,30.09,SSW,213,4.0,8.0,78,0.00,,,0.00,25.0,meteohub,2013-02-06 00:52:00,
2013-02-05 16:57:00,53.8,47.8,30.09,SW,214,3.0,8.0,79,0.00,,,0.00,21.0,meteohub,2013-02-06 00:57:00,
2013-02-05 17:02:00,53.6,47.7,30.09,SSW,202,4.0,8.0,79,0.00,,,0.00,19.0,meteohub,2013-02-06 01:02:00,
2013-02-05 17:07:00,53.2,47.7,30.09,SW,215,3.0,7.0,80,0.00,,,0.00,18.0,meteohub,2013-02-06 01:07:00,
2013-02-05 17:12:00,53.2,47.7,30.09,WSW,247,2.0,6.0,80,0.00,,,0.00,16.0,meteohub,2013-02-06 01:12:00,
2013-02-05 17:17:00,53.1,47.5,30.09,SSW,213,1.0,6.0,80,0.00,,,0.00,14.0,meteohub,2013-02-06 01:17:00,
2013-02-05 17:22:00,52.9,47.7,30.08,SW,221,2.0,6.0,81,0.00,,,0.00,11.0,meteohub,2013-02-06 01:22:00,
2013-02-05 17:27:00,52.7,47.5,30.09,SW,227,1.0,7.0,81,0.00,,,0.00,9.0,meteohub,2013-02-06 01:27:00,
2013-02-05 17:33:00,52.5,47.3,30.09,WSW,239,2.0,7.0,82,0.00,,,0.00,7.0,meteohub,2013-02-06 01:33:00,
2013-02-05 17:38:00,52.3,47.3,30.09,SSW,213,2.0,5.0,82,0.00,,,0.00,5.0,meteohub,2013-02-06 01:38:00,
2013-02-05 17:43:00,52.2,47.3,30.09,WSW,238,3.0,5.0,83,0.00,,,0.00,0.0,meteohub,2013-02-06 01:43:00,
2013-02-05 17:48:00,52.0,47.1,30.09,West,260,2.0,7.0,83,0.00,,,0.00,0.0,meteohub,2013-02-06 01:48:00,
2013-02-05 17:53:00,52.0,47.5,30.09,SW,222,2.0,7.0,84,0.00,,,0.00,0.0,meteohub,2013-02-06 01:53:00,
2013-02-05 17:58:00,51.8,47.3,30.09,SSW,208,5.0,7.0,84,0.00,,,0.00,0.0,meteohub,2013-02-06 01:58:00,
2013-02-05 18:03:00,51.6,47.1,30.09,SSW,209,1.0,7.0,84,0.00,,,0.00,0.0,meteohub,2013-02-06 02:03:00,
2013-02-05 18:08:00,51.4,47.3,30.09,SW,215,4.0,5.0,85,0.00,,,0.00,0.0,meteohub,2013-02-06 02:08:00,
2013-02-05 18:13:00,51.3,47.1,30.09,SW,224,0.0,6.0,85,0.00,,,0.00,0.0,meteohub,2013-02-06 02:13:00,
2013-02-05 18:18:00,51.3,47.1,30.09,SSW,194,2.0,7.0,85,0.00,,,0.00,0.0,meteohub,2013-02-06 02:18:00,
2013-02-05 18:23:00,51.1,47.3,30.09,SW,226,2.0,7.0,86,0.00,,,0.00,0.0,meteohub,2013-02-06 02:23:00,
2013-02-05 18:28:00,51.1,47.3,30.09,SW,221,3.0,7.0,86,0.00,,,0.00,0.0,meteohub,2013-02-06 02:28:00,
2013-02-05 18:33:00,50.9,47.1,30.09,SSW,201,0.0,6.0,86,0.00,,,0.00,0.0,meteohub,2013-02-06 02:33:00,
2013-02-05 18:38:00,50.7,47.1,30.09,SSW,208,2.0,6.0,87,0.00,,,0.00,0.0,meteohub,2013-02-06 02:38:00,
2013-02-05 18:43:00,50.7,47.1,30.09,SSW,211,3.0,6.0,87,0.00,,,0.00,0.0,meteohub,2013-02-06 02:43:00,
2013-02-05 18:48:00,50.5,46.9,30.09,SW,215,3.0,6.0,87,0.00,,,0.00,0.0,meteohub,2013-02-06 02:48:00,
2013-02-05 18:53:00,50.5,46.9,30.09,SW,218,2.0,6.0,87,0.00,,,0.00,0.0,meteohub,2013-02-06 02:53:00,
2013-02-05 18:58:00,50.4,46.8,30.10,SW,236,1.0,6.0,87,0.00,,,0.00,0.0,meteohub,2013-02-06 02:58:00,
2013-02-05 19:03:00,50.4,47.1,30.09,WSW,244,3.0,6.0,88,0.00,,,0.00,0.0,meteohub,2013-02-06 03:03:00,
2013-02-05 19:09:00,50.4,47.1,30.09,SW,235,0.0,6.0,88,0.00,,,0.00,0.0,meteohub,2013-02-06 03:09:00,
2013-02-05 19:14:00,50.2,46.9,30.10,SW,235,1.0,6.0,88,0.00,,,0.00,0.0,meteohub,2013-02-06 03:14:00,
2013-02-05 19:19:00,50.2,46.9,30.10,SW,235,0.0,5.0,88,0.00,,,0.00,0.0,meteohub,2013-02-06 03:19:00,
2013-02-05 19:24:00,50.0,46.8,30.10,SW,235,2.0,3.0,88,0.00,,,0.00,0.0,meteohub,2013-02-06 03:24:00,
2013-02-05 19:29:00,49.8,46.6,30.10,SW,232,6.0,6.0,88,0.00,,,0.00,0.0,meteohub,2013-02-06 03:29:00,
2013-02-05 19:34:00,49.6,46.4,30.10,SW,223,1.0,6.0,88,0.00,,,0.00,0.0,meteohub,2013-02-06 03:34:00,
2013-02-05 19:39:00,49.6,46.4,30.10,SW,223,1.0,6.0,88,0.00,,,0.00,0.0,meteohub,2013-02-06 03:39:00,
2013-02-05 19:44:00,49.5,46.2,30.10,SW,223,0.0,6.0,88,0.00,,,0.00,0.0,meteohub,2013-02-06 03:44:00,
2013-02-05 19:49:00,49.5,46.2,30.11,SW,223,0.0,4.0,88,0.00,,,0.00,0.0,meteohub,2013-02-06 03:49:00,
2013-02-05 19:54:00,49.1,45.7,30.11,West,276,0.0,3.0,87,0.00,,,0.00,0.0,meteohub,2013-02-06 03:54:00,
2013-02-05 19:59:00,48.9,45.5,30.11,West,276,2.0,2.0,87,0.00,,,0.00,0.0,meteohub,2013-02-06 03:59:00,
2013-02-05 20:04:00,48.6,45.1,30.11,West,276,0.0,2.0,87,0.00,,,0.00,0.0,meteohub,2013-02-06 04:04:00,
2013-02-05 20:09:00,48.2,45.0,30.11,West,276,0.0,3.0,88,0.00,,,0.00,0.0,meteohub,2013-02-06 04:09:00,
2013-02-05 20:14:00,48.0,45.1,30.11,West,276,1.0,3.0,89,0.00,,,0.00,0.0,meteohub,2013-02-06 04:14:00,
2013-02-05 20:19:00,47.8,45.0,30.11,SW,227,0.0,4.0,89,0.00,,,0.00,0.0,meteohub,2013-02-06 04:19:00,
2013-02-05 20:25:00,47.5,44.2,30.11,SW,227,1.0,4.0,88,0.00,,,0.00,0.0,meteohub,2013-02-06 04:25:00,
2013-02-05 20:29:00,47.3,44.1,30.12,SW,227,0.0,3.0,88,0.00,,,0.00,0.0,meteohub,2013-02-06 04:29:00,
2013-02-05 20:35:00,47.1,43.9,30.12,West,275,2.0,3.0,88,0.00,,,0.00,0.0,meteohub,2013-02-06 04:35:00,
2013-02-05 20:40:00,46.6,43.7,30.12,NNW,333,1.0,4.0,89,0.00,,,0.00,0.0,meteohub,2013-02-06 04:40:00,
2013-02-05 20:45:00,46.4,43.9,30.12,WNW,295,0.0,4.0,90,0.00,,,0.00,0.0,meteohub,2013-02-06 04:45:00,
2013-02-05 20:50:00,46.4,43.9,30.12,WNW,295,0.0,4.0,90,0.00,,,0.00,0.0,meteohub,2013-02-06 04:50:00,
2013-02-05 20:55:00,46.4,44.1,30.12,WNW,295,0.0,3.0,91,0.00,,,0.00,0.0,meteohub,2013-02-06 04:55:00,
2013-02-05 21:00:00,46.4,44.1,30.12,WNW,295,0.0,3.0,91,0.00,,,0.00,0.0,meteohub,2013-02-06 05:00:00,
2013-02-05 21:02:00,46.4,44.1,30.13,WNW,295,0.0,3.0,91,0.00,,,0.00,0.0,meteohub,2013-02-06 05:02:00,
2013-02-05 21:07:00,46.2,43.9,30.13,WNW,295,0.0,3.0,91,0.00,,,0.00,0.0,meteohub,2013-02-06 05:07:00,
2013-02-05 21:12:00,46.0,43.7,30.13,WNW,295,0.0,1.0,91,0.00,,,0.00,0.0,meteohub,2013-02-06 05:12:00,
2013-02-05 21:17:00,45.9,43.5,30.13,WNW,295,0.0,3.0,91,0.00,,,0.00,0.0,meteohub,2013-02-06 05:17:00,
2013-02-05 21:22:00,45.9,43.5,30.13,WNW,295,0.0,4.0,91,0.00,,,0.00,0.0,meteohub,2013-02-06 05:22:00,
2013-02-05 21:27:00,45.9,43.9,30.13,WNW,295,0.0,4.0,92,0.00,,,0.00,0.0,meteohub,2013-02-06 05:27:00,
2013-02-05 21:32:00,45.9,43.9,30.13,WNW,295,0.0,3.0,92,0.00,,,0.00,0.0,meteohub,2013-02-06 05:32:00,
2013-02-05 21:37:00,45.7,43.7,30.13,WNW,295,0.0,2.0,92,0.00,,,0.00,0.0,meteohub,2013-02-06 05:37:00,
2013-02-05 21:42:00,45.7,43.3,30.13,WNW,295,0.0,0.0,91,0.00,,,0.00,0.0,meteohub,2013-02-06 05:42:00,
2013-02-05 21:47:00,45.7,43.2,30.13,WNW,295,0.0,0.0,91,0.00,,,0.00,0.0,meteohub,2013-02-06 05:47:00,
2013-02-05 21:52:00,45.5,43.0,30.14,WNW,295,0.0,0.0,91,0.00,,,0.00,0.0,meteohub,2013-02-06 05:52:00,
2013-02-05 21:57:00,45.3,42.8,30.14,WNW,295,1.0,0.0,91,0.00,,,0.00,0.0,meteohub,2013-02-06 05:57:00,
2013-02-05 22:02:00,45.3,43.2,30.14,WNW,295,0.0,3.0,92,0.00,,,0.00,0.0,meteohub,2013-02-06 06:02:00,
2013-02-05 22:07:00,45.1,43.0,30.14,WNW,295,0.0,3.0,92,0.00,,,0.00,0.0,meteohub,2013-02-06 06:07:00,
2013-02-05 22:12:00,45.0,42.4,30.14,WNW,295,0.0,3.0,91,0.00,,,0.00,0.0,meteohub,2013-02-06 06:12:00,
2013-02-05 22:17:00,44.8,42.6,30.14,WNW,295,0.0,2.0,92,0.00,,,0.00,0.0,meteohub,2013-02-06 06:17:00,
2013-02-05 22:22:00,44.8,42.6,30.15,WNW,295,0.0,2.0,92,0.00,,,0.00,0.0,meteohub,2013-02-06 06:22:00,
2013-02-05 22:27:00,44.8,42.6,30.14,WNW,295,0.0,1.0,92,0.00,,,0.00,0.0,meteohub,2013-02-06 06:27:00,
2013-02-05 22:32:00,44.8,42.6,30.14,WNW,295,0.0,2.0,92,0.00,,,0.00,0.0,meteohub,2013-02-06 06:32:00,
2013-02-05 22:37:00,44.8,42.6,30.14,WNW,295,0.0,2.0,92,0.00,,,0.00,0.0,meteohub,2013-02-06 06:37:00,
2013-02-05 22:42:00,44.6,42.4,30.14,WNW,295,0.0,2.0,92,0.00,,,0.00,0.0,meteohub,2013-02-06 06:42:00,
2013-02-05 22:47:00,44.4,42.4,30.14,WNW,295,0.0,0.0,92,0.00,,,0.00,0.0,meteohub,2013-02-06 06:47:00,
2013-02-05 22:52:00,44.1,42.1,30.14,WNW,295,0.0,0.0,92,0.00,,,0.00,0.0,meteohub,2013-02-06 06:52:00,
2013-02-05 22:57:00,43.9,41.5,30.15,WNW,295,0.0,0.0,91,0.00,,,0.00,0.0,meteohub,2013-02-06 06:57:00,
2013-02-05 23:02:00,43.7,41.7,30.15,WNW,295,1.0,1.0,92,0.00,,,0.00,0.0,meteohub,2013-02-06 07:02:00,
2013-02-05 23:07:00,43.5,41.2,30.15,WNW,295,0.0,1.0,91,0.00,,,0.00,0.0,meteohub,2013-02-06 07:07:00,
2013-02-05 23:12:00,43.3,41.0,30.15,WNW,295,0.0,1.0,91,0.00,,,0.00,0.0,meteohub,2013-02-06 07:12:00,
2013-02-05 23:17:00,43.0,40.6,30.15,WNW,295,0.0,1.0,91,0.00,,,0.00,0.0,meteohub,2013-02-06 07:17:00,
2013-02-05 23:22:00,43.0,41.0,30.15,WNW,295,0.0,2.0,92,0.00,,,0.00,0.0,meteohub,2013-02-06 07:22:00,
2013-02-05 23:27:00,42.8,40.8,30.14,WNW,295,0.0,2.0,92,0.00,,,0.00,0.0,meteohub,2013-02-06 07:27:00,
2013-02-05 23:32:00,42.8,40.8,30.14,WNW,295,0.0,1.0,92,0.00,,,0.00,0.0,meteohub,2013-02-06 07:32:00,
2013-02-05 23:37:00,42.6,40.6,30.14,WNW,295,0.0,1.0,92,0.00,,,0.00,0.0,meteohub,2013-02-06 07:37:00,
2013-02-05 23:42:00,42.4,40.5,30.15,WNW,295,0.0,0.0,92,0.00,,,0.00,0.0,meteohub,2013-02-06 07:42:00,
2013-02-05 23:47:00,42.4,40.3,30.15,WNW,295,0.0,0.0,92,0.00,,,0.00,0.0,meteohub,2013-02-06 07:47:00,
2013-02-05 23:52:00,42.3,40.1,30.15,WNW,295,0.0,1.0,92,0.00,,,0.00,0.0,meteohub,2013-02-06 07:52:00,
2013-02-05 23:57:00,42.1,39.9,30.15,WNW,291,0.0,4.0,92,0.00,,,0.00,0.0,meteohub,2013-02-06 07:57:00,